Retour au catalogue

YUNHAI 3

ActifMétéoSSO
NORAD 54235·PAYLOAD·🇨🇳 China

Lancé Nov 11, 2022 depuis Taiyuan Satellite Launch Center

Loading…

Prochains Passages (prochaines 24 heures)

TLE

FraisSource: Space-Track

Époque: Sep 14, 2026, 14:54 UTC

1 54235U 22151A   26257.62131300 -.00000019  00000-0  13490-4 0  9990
2 54235  98.8214 263.7701 0000959 154.0239 206.0982 14.13373204197570

Suivez YUNHAI 3 en temps réel avec AllMySat

Download on the App Store